[Iaude] MPEC G98: 2023 HA36 [a=42.87,e=0.17,i=13.1,H=6.5]
    mpec at cfa.harvard.edu 
    mpec at cfa.harvard.edu
       
    Mon Apr  8 10:47:13 EDT 2024
    
    
  
M.P.E.C. 2024-G98                                 Issued 2024 April 8, 14:45 UT
     The Minor Planet Electronic Circulars contain information on unusual
         minor planets, routine data on comets and natural satellites,
         and occasional editorial announcements.  They are published
    on behalf of Division F of the International Astronomical Union by the
          Minor Planet Center, Smithsonian Astrophysical Observatory,
                          Cambridge, MA 02138, U.S.A.
			  
             Prepared using the Tamkin Foundation Computer Network
                              MPC at CFA.HARVARD.EDU
            URL https://www.minorplanetcenter.net/    ISSN 1523-6714
                                   2023 HA36                                    
Observations:
     K23H36A* C2023 04 22.06931 10 41 24.090+07 58 50.07         23.3 rVEG098304
     K23H36A  C2023 04 22.16273 10 41 23.849+07 58 51.26         23.3 rVEG098304
     K23H36A  C2023 05 15.10295 10 40 49.022+08 01 33.10         23.2 rVEG098304
     K23H36A  C2023 05 16.08428 10 40 48.367+08 01 34.88         23.3 rVEG098304
     K23H36A  C2024 03 07.27368 10 47 19.680+07 09 51.78         23.2 rVEG098304
     K23H36A  C2024 03 08.26799 10 47 15.587+07 10 14.29         23.3 rVEG098304
Observer details:
304 Las Campanas Observatory.  Observer S. S. Sheppard.  6.5-m Magellan-Baade
    telescope + CCD.
Orbital elements:
2023 HA36                                                                       
Epoch 2024 Mar. 31.0 TT = JDT 2460400.5                 Alexandersen            
M 130.79885              (2000.0)            P               Q                  
n   0.00351081     Peri.   38.41543     +0.95056718     -0.29934631             
a  42.8743430      Node   338.55920     +0.19833655     +0.78984649             
e   0.1724868      Incl.   13.05105     +0.23892393     +0.53528899             
P 281              H    6.57          G   0.15           U   9                  
Residuals in seconds of arc
230422 304  0.1+  0.1-    230515 304  0.2+  0.0     240307 304  0.1-  0.0
230422 304  0.1-  0.0     230516 304  0.1-  0.0     240308 304  0.1+  0.0
Ephemeris:
2023 HA36                a,e,i = 42.87, 0.17, 13                 q = 35.4791
Date    TT    R. A. (2000) Decl.     Delta      r    Elong.  Phase     V
2024 03 09    10 47 12.6 +07 10 31  47.3356 48.3188   171.9     0.2    23.4
...
2024 03 24    10 46 13.1 +07 15 58  47.4055 48.3228   156.7     0.5    23.5
...
2024 04 01    10 45 44.2 +07 18 36  47.4686 48.3250   148.7     0.6    23.5
...
2024 04 07    10 45 24.2 +07 20 25  47.5268 48.3266   142.7     0.7    23.5
2024 04 08    10 45 21.1 +07 20 42  47.5374 48.3269   141.7     0.7    23.5
2024 04 09    10 45 17.9 +07 20 59  47.5481 48.3272   140.7     0.8    23.5
...
2024 04 15    10 45 00.4 +07 22 33  47.6176 48.3288   134.7     0.8    23.5
...
2024 04 23    10 44 40.4 +07 24 19  47.7217 48.3310   126.8     1.0    23.5
...
2024 05 08    10 44 14.1 +07 26 31  47.9456 48.3350   112.1     1.1    23.6
M. P. C. Staff               (C) Copyright 2024 MPC           M.P.E.C. 2024-G98
    
    
More information about the Iaude
mailing list